Location: Berlin
(38.3226°N, 75.2177°W)
Time: 15:49:30
(UTC+00:00)

Cosmos 1315 Rocket - Pass Details

Date: 26 October 2020
Orbit: 530 x 567 km, 81.2° (Epoch: 23 November)

Event Time Altitude Azimuth Distance (km) Brightness Sun altitude
Rises 00:19:57 0° 201° (SSW) 2,663 6.5 -26.3°
Reaches altitude 10° 00:22:08 10° 207° (SSW) 1,781 5.6 -26.7°
Enters shadow 00:24:47 35° 236° (SW) 870 4.1 -27.3°
